OM6ACB-6 Weather Reports


Display with metric or nautical units.
time (UTC)temp
F
wind
direction
speed
MPH
gust
MPH
rain 1hr
in
rain 24hr
in
rain mn
in
humidity
%
barometer
mb
20260508151704 65 87 2.0 5.0 0.00 0.00 0.00 23 1019.0
20260508150704 68 20 2.0 3.0 0.00 0.00 0.00 22 1019.2
20260508145704 68 43 3.0 5.0 0.00 0.00 0.00 22 1019.2
20260508144703 68 90 5.0 5.0 0.00 0.00 0.00 22 1018.9
20260508143703 65 90 4.0 5.0 0.00 0.00 0.00 23 1018.9
20260508142703 65 57 4.0 5.0 0.00 0.00 0.00 23 1018.8
20260508141702 67 31 3.0 5.0 0.00 0.00 0.00 23 1019.0
20260508140702 67 30 3.0 6.0 0.00 0.00 0.00 23 1019.2
20260508135702 66 270 3.0 3.0 0.00 0.00 0.00 23 1018.9
20260508134702 66 270 1.0 3.0 0.00 0.00 0.00 23 1018.9
20260508133701 66 0 0.0 0.0 0.00 0.00 0.00 23 1018.9
20260508132701 68 135 1.0 1.0 0.00 0.00 0.00 22 1019.2
20260508131701 68 135 1.0 1.0 0.00 0.00 0.00 23 1019.1
20260508130700 68 66 0.0 1.0 0.00 0.00 0.00 23 1019.1
20260508125700 73 352 2.0 4.0 0.00 0.00 0.00 21 1019.6
20260508124700 68 270 1.0 1.0 0.00 0.00 0.00 23 1019.2
20260508123659 71 245 1.0 2.0 0.00 0.00 0.00 22 1019.5
20260508122659 67 348 0.0 0.0 0.00 0.00 0.00 23 1019.2
20260508121659 68 277 1.0 2.0 0.00 0.00 0.00 22 1019.2
20260508120659 65 240 2.0 3.0 0.00 0.00 0.00 23 1019.2
20260508115658 68 269 0.0 4.0 0.00 0.00 0.00 23 1019.2
20260508114658 68 270 0.0 3.0 0.00 0.00 0.00 23 1019.2
20260508113658 68 164 3.0 4.0 0.00 0.00 0.00 23 1019.2
20260508112657 77 134 2.0 4.0 0.00 0.00 0.00 20 1020.0
20260508111657 77 87 1.0 2.0 0.00 0.00 0.00 20 1020.0
20260508110657 68 90 2.0 2.0 0.00 0.00 0.00 23 1019.4
20260508105657 68 261 4.0 6.0 0.00 0.00 0.00 23 1019.4
20260508104656 72 333 3.0 6.0 0.00 0.00 0.00 21 1019.8
20260508103656 73 278 2.0 4.0 0.00 0.00 0.00 21 1019.8
20260508102656 68 308 2.0 3.0 0.00 0.00 0.00 23 1019.4
20260508101655 69 217 2.0 3.0 0.00 0.00 0.00 22 1019.5
20260508100655 67 121 3.0 14.0 0.00 0.00 0.00 23 1019.4
20260508095655 71 141 3.0 14.0 0.00 0.00 0.00 22 1019.7
20260508094655 71 160 2.0 4.0 0.00 0.00 0.00 22 1019.8
20260508093654 69 139 2.0 4.0 0.00 0.00 0.00 22 1019.7
20260508092654 69 140 1.0 2.0 0.00 0.00 0.00 22 1019.8
20260508091654 65 225 0.0 0.0 0.00 0.00 0.00 23 1019.3
20260508090653 61 270 0.0 1.0 0.00 0.00 0.00 25 1019.2
20260508085653 62 90 0.0 1.0 0.00 0.00 0.00 24 1019.2
20260508084653 62 50 2.0 4.0 0.00 0.00 0.00 24 1019.2
20260508083652 65 80 3.0 4.0 0.00 0.00 0.00 23 1019.5
20260508082652 64 160 2.0 4.0 0.00 0.00 0.00 24 1019.9
20260508081652 68 142 2.0 4.0 0.00 0.00 0.00 23 1019.7
20260508080652 65 140 2.0 2.0 0.00 0.00 0.00 23 1019.6
20260508075651 66 251 3.0 4.0 0.00 0.00 0.00 23 1019.6
20260508074651 65 141 2.0 3.0 0.00 0.00 0.00 23 1019.5
20260508073651 65 217 2.0 3.0 0.00 0.00 0.00 23 1019.6
20260508072650 61 260 1.0 4.0 0.00 0.00 0.00 24 1019.2
20260508071650 59 254 1.0 2.0 0.00 0.00 0.00 25 1019.1
20260508070650 59 243 1.0 3.0 0.00 0.00 0.00 25 1019.0
20260508065650 56 256 2.0 3.0 0.00 0.00 0.00 26 1018.7
20260508064649 55 315 0.0 1.0 0.00 0.00 0.00 27 1018.4
20260508063649 56 225 0.0 1.0 0.00 0.00 0.00 26 1018.5
20260508062649 56 270 0.0 0.0 0.00 0.00 0.00 26 1018.5
20260508061648 58 244 0.0 1.0 0.00 0.00 0.00 25 1018.7
20260508060648 55 225 0.0 1.0 0.00 0.00 0.00 28 1018.4
20260508055648 53 181 0.0 1.0 0.00 0.00 0.00 38 1018.1
20260508054647 53 236 0.0 2.0 0.00 0.00 0.00 39 1018.1
20260508053647 54 225 0.0 0.0 0.00 0.00 0.00 51 1018.0
20260508052647 53 0 0.0 0.0 0.00 0.00 0.00 63 1017.9
20260508051647 53 270 0.0 0.0 0.00 0.00 0.00 65 1017.9
20260508050646 52 270 0.0 0.0 0.00 0.00 0.00 65 1017.9
20260508045646 52 0 0.0 0.0 0.00 0.00 0.00 65 1017.8
20260508044646 51 270 0.0 1.0 0.00 0.00 0.00 65 1017.8
20260508043645 51 270 0.0 1.0 0.00 0.00 0.00 65 1017.7
20260508042645 51 0 0.0 0.0 0.00 0.00 0.00 65 1017.6
20260508041645 51 0 0.0 0.0 0.00 0.00 0.00 65 1017.6
20260508040645 51 0 0.0 0.0 0.00 0.00 0.00 65 1017.4
20260508035644 51 0 0.0 0.0 0.00 0.00 0.00 65 1017.5
20260508034644 51 225 0.0 0.0 0.00 0.00 0.00 65 1017.4
20260508033644 52 0 0.0 0.0 0.00 0.00 0.00 65 1017.4
20260508032643 52 0 0.0 0.0 0.00 0.00 0.00 65 1017.3
20260508031643 51 0 0.0 0.0 0.00 0.00 0.00 65 1017.2
20260508030643 51 0 0.0 0.0 0.00 0.00 0.00 65 1017.2
20260508025643 51 0 0.0 0.0 0.00 0.00 0.00 64 1017.2
20260508024642 51 0 0.0 0.0 0.00 0.00 0.00 63 1017.1
20260508023642 51 0 0.0 0.0 0.00 0.00 0.00 63 1017.0
20260508022642 51 0 0.0 0.0 0.00 0.00 0.00 62 1016.9
20260508021641 51 0 0.0 0.0 0.00 0.00 0.00 62 1016.9
20260508020641 50 0 0.0 0.0 0.00 0.00 0.00 62 1017.0
20260508015641 50 0 0.0 0.0 0.00 0.00 0.00 63 1016.9
20260508014640 49 0 0.0 0.0 0.00 0.00 0.00 60 1016.9
20260508013640 49 270 0.0 0.0 0.00 0.00 0.00 58 1016.9
20260508012640 49 270 0.0 0.0 0.00 0.00 0.00 58 1016.9
20260508011640 50 225 0.0 1.0 0.00 0.00 0.00 60 1016.8
20260508010639 50 0 0.0 0.0 0.00 0.00 0.00 62 1016.8
20260508005639 49 225 0.0 1.0 0.00 0.00 0.00 62 1016.8
20260508004639 50 225 0.0 1.0 0.00 0.00 0.00 61 1016.8
20260508003638 50 0 0.0 0.0 0.00 0.00 0.00 60 1016.9
20260508002638 51 0 0.0 0.0 0.00 0.00 0.00 60 1016.8
20260508001638 50 0 0.0 0.0 0.00 0.00 0.00 59 1016.8
20260508000638 50 0 0.0 0.0 0.00 0.00 0.00 61 1016.7
20260507235637 50 0 0.0 0.0 0.00 0.00 0.00 62 1016.7
20260507234637 50 0 0.0 0.0 0.00 0.00 0.00 62 1016.8
20260507233637 50 0 0.0 0.0 0.00 0.00 0.00 63 1016.8
20260507232636 50 0 0.0 0.0 0.00 0.00 0.00 62 1016.9
20260507231636 49 0 0.0 0.0 0.00 0.00 0.00 61 1016.9
20260507230636 49 0 0.0 0.0 0.00 0.00 0.00 59 1016.9
20260507225636 51 0 0.0 0.0 0.00 0.00 0.00 56 1017.2
20260507224635 51 0 0.0 0.0 0.00 0.00 0.00 55 1017.3
20260507223635 52 0 0.0 0.0 0.00 0.00 0.00 53 1017.3
20260507222635 52 0 0.0 0.0 0.00 0.00 0.00 54 1017.3
20260507221634 52 0 0.0 0.0 0.00 0.00 0.00 54 1017.2
20260507220634 51 0 0.0 0.0 0.00 0.00 0.00 53 1017.1
20260507215634 51 0 0.0 0.0 0.00 0.00 0.00 59 1017.1
20260507214633 52 90 0.0 0.0 0.00 0.00 0.00 60 1017.0
20260507213633 52 0 0.0 0.0 0.00 0.00 0.00 60 1017.0
20260507212633 52 0 0.0 0.0 0.00 0.00 0.00 59 1017.0
20260507211633 52 0 0.0 0.0 0.00 0.00 0.00 56 1017.1
20260507210632 52 0 0.0 0.0 0.00 0.00 0.00 56 1016.9
20260507205632 51 0 0.0 0.0 0.00 0.00 0.00 53 1016.8
20260507204632 52 0 0.0 0.0 0.00 0.00 0.00 51 1016.9
20260507203631 52 0 0.0 0.0 0.00 0.00 0.00 49 1016.8
20260507202631 53 0 0.0 0.0 0.00 0.00 0.00 47 1016.9
20260507201631 53 0 0.0 0.0 0.00 0.00 0.00 46 1016.9
20260507200631 53 0 0.0 0.0 0.00 0.00 0.00 45 1016.8
20260507195631 53 0 0.0 0.0 0.00 0.00 0.00 44 1016.7
20260507194630 53 0 0.0 0.0 0.00 0.00 0.00 43 1016.7
20260507193630 53 0 0.0 0.0 0.00 0.00 0.00 40 1016.7
20260507192629 54 0 0.0 0.0 0.00 0.00 0.00 39 1016.6
20260507191629 54 0 0.0 0.0 0.00 0.00 0.00 37 1016.5
20260507190629 54 90 0.0 1.0 0.00 0.00 0.00 33 1016.6
20260507185628 54 90 0.0 0.0 0.00 0.00 0.00 32 1016.4
20260507184628 54 90 0.0 1.0 0.00 0.00 0.00 32 1016.3
20260507183628 55 90 0.0 1.0 0.00 0.00 0.00 29 1016.2
20260507182628 55 0 0.0 0.0 0.00 0.00 0.00 28 1016.2
20260507181627 55 0 0.0 0.0 0.00 0.00 0.00 27 1016.2
20260507180627 55 90 2.0 4.0 0.00 0.00 0.00 26 1016.1
20260507175627 56 88 4.0 4.0 0.00 0.00 0.00 26 1016.0
20260507174626 56 56 2.0 3.0 0.00 0.00 0.00 27 1016.0
20260507173626 56 92 2.0 4.0 0.00 0.00 0.00 28 1016.0
20260507172626 56 101 2.0 4.0 0.00 0.00 0.00 27 1015.9
20260507171626 56 15 4.0 6.0 0.00 0.00 0.00 27 1015.9
20260507170625 57 40 3.0 4.0 0.00 0.00 0.00 26 1015.9
20260507165627 58 49 3.0 4.0 0.00 0.00 0.00 25 1016.0
20260507164625 63 79 2.0 4.0 0.00 0.00 0.00 24 1016.3
20260507163624 59 68 1.0 4.0 0.00 0.00 0.00 25 1016.0
20260507162624 58 45 0.0 4.0 0.00 0.00 0.00 25 1015.8
20260507161624 58 135 0.0 2.0 0.00 0.00 0.00 25 1015.7
20260507160624 58 115 1.0 4.0 0.00 0.00 0.00 25 1015.7
20260507155623 57 95 3.0 5.0 0.00 0.00 0.00 25 1015.6
20260507154623 58 106 2.0 4.0 0.00 0.00 0.00 25 1015.6
20260507153623 58 116 4.0 6.0 0.00 0.00 0.00 25 1015.7
20260507152622 60 185 2.0 5.0 0.00 0.00 0.00 25 1015.9